Wind_Speed
17 17 17 17 17 18 19 20 20 21 21 21 21 22 22 22 22 22 22 22 23 23 23 24 23 23 23 24 24 24 24 24 24 24 25 25 25 25 26 26 27 26 27
18 18 18 18 19 19 20 21 21 22 22 22 22 23 22 22 22 22 23 23 24 24 25 24 24 25 26 26 26 26 26 27 27 27 26 26 26 27 27 28 28 28 29
18 18 18 19 20 20 22 22 22 22 22 22 23 23 23 24 23 23 24 24 25 25 25 25 25 25 26 27 27 27 27 28 28 29 29 29 29 29 29 29 30 30 30
18 18 19 20 21 22 22 22 22 22 23 23 23 24 24 24 24 25 25 25 25 25 26 26 26 27 27 27 27 28 27 28 28 29 29 30 30 31 31 31 31 31 31
20 20 21 21 23 24 24 24 24 24 24 24 24 25 25 25 25 25 25 25 25 26 26 26 27 27 27 27 27 27 28 29 29 29 29 30 30 31 31 32 32 32 32
21 22 22 23 24 25 25 25 25 25 26 26 26 26 26 25 25 25 24 24 25 26 27 27 27 28 28 28 28 29 29 29 30 29 29 30 31 32 32 32 32 32 32
22 23 24 24 24 26 26 26 26 26 27 27 27 26 25 25 25 25 25 26 27 27 27 27 28 28 28 28 28 28 29 30 30 30 30 30 31 31 31 32 32 33 32
24 25 25 26 26 26 26 27 27 28 28 27 26 26 26 26 26 26 26 27 27 27 27 26 26 26 26 27 27 27 27 27 29 30 30 30 30 31 31 31 31 32 31
26 26 26 26 27 28 28 27 27 28 28 27 27 26 26 26 25 26 26 26 26 26 26 25 26 26 26 26 26 26 26 27 27 28 28 28 28 28 29 31 32 31 31
28 27 27 28 28 28 28 28 28 28 28 27 27 26 26 27 27 27 27 26 26 26 27 27 26 26 27 27 27 27 26 26 27 27 27 28 28 29 30 30 30 31 31
29 29 29 28 28 29 29 28 28 29 29 28 28 28 28 28 28 28 28 27 27 27 28 28 27 27 27 26 26 26 26 26 26 27 27 28 28 29 29 30 29 29 29
30 30 30 30 30 30 30 29 29 29 29 29 29 30 30 29 28 28 28 28 28 28 28 28 28 27 27 26 25 25 25 25 25 26 27 28 28 28 28 28 29 29 29
32 32 33 32 31 31 30 30 30 30 30 30 30 30 29 29 28 28 28 28 28 28 27 28 28 27 26 26 26 26 26 25 26 26 26 27 27 27 27 28 28 28 28
33 32 32 32 32 31 31 31 31 31 31 30 30 30 30 29 29 28 28 28 28 27 27 27 27 27 27 26 26 26 26 26 26 26 26 26 25 26 26 26 27 27 27
33 33 33 33 33 32 31 31 31 31 31 31 31 30 30 29 28 28 29 28 28 27 27 27 27 27 26 26 26 26 26 26 26 25 26 26 26 26 26 26 26 26 26
34 34 34 34 33 32 32 31 31 32 32 31 30 30 31 30 29 29 29 29 28 28 27 26 27 27 26 26 26 26 25 26 26 26 26 27 27 26 26 26 26 26 26
36 36 36 36 36 34 33 32 32 32 32 31 30 31 31 30 29 29 29 28 28 27 26 26 26 26 26 25 25 25 25 26 26 27 26 26 27 27 26 25 25 26 26
36 36 37 36 35 34 33 33 33 32 32 32 32 31 31 30 29 30 29 29 28 27 27 26 26 26 26 25 25 26 26 26 27 27 26 26 26 27 26 25 25 25 25
37 36 36 35 35 34 34 33 33 33 33 33 32 32 31 30 30 30 30 29 28 28 27 27 27 26 26 26 26 27 27 27 27 27 27 26 26 26 25 25 24 23 23
37 36 36 35 35 35 34 34 33 33 33 32 32 31 30 30 30 29 29 28 28 27 27 27 27 27 26 27 26 26 26 27 27 26 26 26 26 25 24 23 22 21 21
36 35 34 33 33 33 32 32 32 32 32 31 31 31 30 30 29 28 27 27 27 27 27 26 26 27 27 26 26 26 26 26 25 25 25 25 24 24 23 22 21 20 20
33 33 32 32 32 32 32 31 31 31 31 30 29 30 29 28 28 27 26 26 26 26 26 26 26 26 26 26 26 26 26 25 24 24 24 23 23 22 22 21 20 20 19
32 32 32 32 32 31 31 31 31 31 30 29 29 29 29 28 28 26 26 26 26 26 26 25 26 26 26 25 25 25 25 24 24 24 23 23 22 21 21 21 20 20 20
31 31 31 31 31 31 30 29 29 29 28 28 29 29 29 28 27 26 26 26 27 26 25 25 26 26 26 25 25 25 25 25 25 24 23 23 22 21 20 20 20 20 20
30 29 30 30 29 28 28 27 27 27 27 28 28 28 28 27 26 25 25 25 25 26 25 25 25 25 25 25 25 24 24 24 24 23 22 22 21 21 20 19 19 20 20
29 29 29 28 27 27 27 27 27 26 26 27 27 27 26 26 25 25 25 24 24 25 25 24 24 24 24 24 24 24 24 23 23 23 23 21 20 19 19 19 19 19 19
Wind_Direction
296 295 296 299 302 306 306 306 304 303 303 304 303 302 301 300 298 297 295 294 293 292 292 291 287 286 286 282 281 280 278 276 275 273 271 270 270 268 268 269 268 269 269
290 291 296 300 303 304 305 305 303 303 305 304 303 302 301 301 299 298 297 297 294 292 293 291 288 287 288 286 283 282 280 277 276 274 272 268 268 268 269 269 268 269 270
287 290 295 298 300 302 303 305 304 305 305 305 304 300 299 300 300 300 299 299 297 294 294 294 292 290 290 288 284 281 279 278 276 275 273 271 269 269 269 269 268 269 270
287 290 294 297 297 298 300 302 301 302 303 303 302 302 299 299 299 299 299 298 297 295 294 294 293 291 289 288 285 283 280 279 277 275 273 271 270 270 270 269 269 270 271
287 290 293 295 295 297 297 299 299 299 299 299 300 300 298 296 297 297 296 296 296 294 293 293 293 292 290 288 287 284 281 279 278 276 274 273 272 271 271 271 270 270 271
289 291 293 296 296 297 298 297 297 298 297 296 296 295 296 296 297 297 296 297 297 296 295 294 294 293 291 289 286 284 282 281 279 278 276 274 272 271 272 272 271 271 272
290 292 296 298 298 296 295 295 296 295 295 293 293 294 295 296 297 296 296 296 297 297 297 297 296 295 293 291 289 287 285 282 281 279 277 275 273 272 272 272 271 271 271
291 294 296 296 296 297 297 297 295 295 295 295 295 295 295 296 297 297 297 296 296 298 299 299 299 299 297 295 292 291 290 287 283 281 279 277 275 274 272 272 272 273 272
293 294 295 296 297 297 298 297 296 295 295 295 295 295 296 296 296 298 299 299 299 299 299 300 300 300 298 297 296 294 292 289 286 284 282 279 278 277 275 273 274 273 273
293 293 294 295 295 295 295 295 294 293 293 293 293 293 295 296 297 298 298 298 299 298 298 299 299 300 299 297 296 295 293 291 289 286 285 283 280 278 277 275 275 275 274
291 290 291 292 292 293 292 292 292 292 292 292 292 293 294 295 296 296 296 296 296 296 296 298 298 300 301 298 298 298 296 293 290 288 286 285 282 280 277 275 276 276 277
290 290 288 289 289 290 290 290 290 289 290 291 291 292 293 293 293 293 295 295 295 295 295 297 299 299 300 300 299 299 298 297 295 291 288 286 284 281 278 277 277 278 278
289 289 289 288 289 290 289 288 290 290 289 291 290 290 291 292 292 293 293 294 295 296 296 298 299 299 299 299 298 299 298 297 297 295 292 287 282 281 279 278 278 278 277
288 288 288 289 290 289 288 288 289 290 291 292 290 289 290 290 293 293 294 295 296 296 296 297 298 298 297 297 297 297 298 298 297 297 295 291 285 282 281 280 281 280 279
286 287 287 287 288 287 287 286 287 289 290 290 290 290 290 290 291 293 295 297 298 297 296 297 297 296 295 295 295 295 296 297 297 297 296 293 289 285 284 283 283 281 280
286 288 289 286 287 285 284 284 285 287 288 289 289 289 291 293 293 294 296 297 299 298 297 296 297 296 295 295 295 294 294 296 297 296 295 291 289 287 286 285 284 283 282
286 288 290 289 288 285 284 285 285 285 286 286 287 289 291 292 293 294 294 295 297 298 297 297 297 296 295 295 294 295 296 297 298 296 294 292 290 288 287 286 285 284 283
286 287 288 288 288 286 286 286 286 285 285 285 286 287 290 290 291 292 292 292 295 295 295 295 296 296 296 295 294 295 296 297 299 298 295 294 292 291 290 289 287 285 283
286 286 287 287 287 287 285 285 285 285 285 286 287 286 287 288 289 289 289 290 292 293 293 294 294 295 295 295 294 294 295 296 297 297 296 295 294 293 291 291 289 286 283
286 286 287 287 287 286 285 284 284 284 284 284 285 284 284 285 285 286 286 288 289 290 290 292 293 294 294 294 294 294 295 295 295 295 296 295 295 294 291 290 290 288 285
287 287 287 287 287 286 286 284 284 285 284 283 284 284 283 283 282 282 283 285 287 288 289 291 293 294 294 293 294 294 294 296 296 297 297 297 296 293 290 289 288 287 285
287 288 287 287 287 287 288 287 286 286 284 283 283 284 283 281 280 281 283 285 286 287 288 289 291 294 294 293 294 294 293 295 298 298 298 298 297 294 289 286 286 287 286
287 288 287 287 286 287 287 286 284 284 283 282 282 282 281 280 280 281 284 285 285 286 287 288 290 291 292 293 294 294 293 296 297 296 296 296 294 291 288 285 284 283 285
286 287 286 286 286 286 286 285 283 282 282 282 281 280 280 280 280 282 285 286 286 287 288 288 289 291 292 292 293 293 293 295 296 296 295 294 291 289 287 285 284 283 284
286 286 286 286 285 285 285 284 283 282 282 283 281 279 280 279 280 283 285 286 286 286 287 288 289 290 291 290 290 291 293 294 294 295 294 292 290 288 286 283 282 283 284
284 284 283 283 282 284 284 284 282 281 282 282 282 281 279 279 281 282 284 284 285 287 288 287 287 289 291 290 290 290 292 293 294 292 290 288 288 287 287 286 285 284 284
Height
5870 5869 5868 5866 5864 5862 5861 5859 5857 5855 5853 5851 5849 5847 5845 5843 5841 5840 5838 5836 5834 5833 5831 5829 5828 5827 5825 5824 5823 5822 5820 5820 5819 5819 5819 5818 5817 5817 5817 5817 5817 5817 5817
5865 5864 5863 5861 5859 5858 5856 5853 5851 5850 5848 5845 5843 5841 5840 5838 5836 5834 5832 5830 5828 5826 5824 5822 5821 5819 5818 5817 5815 5814 5813 5812 5811 5811 5811 5810 5809 5809 5809 5809 5809 5809 5809
5860 5859 5857 5856 5854 5852 5850 5848 5846 5844 5842 5840 5838 5835 5834 5832 5830 5827 5826 5823 5821 5819 5817 5815 5813 5812 5810 5809 5807 5806 5804 5803 5802 5802 5802 5801 5801 5801 5800 5800 5800 5800 5800
5855 5853 5852 5850 5848 5846 5844 5842 5840 5838 5836 5834 5832 5829 5827 5825 5823 5821 5819 5817 5814 5812 5810 5808 5806 5804 5802 5800 5799 5797 5796 5794 5793 5793 5792 5792 5792 5791 5792 5791 5791 5791 5791
5849 5848 5846 5844 5843 5840 5838 5836 5835 5832 5830 5828 5826 5823 5821 5819 5817 5814 5812 5810 5807 5805 5803 5800 5798 5796 5794 5792 5790 5788 5787 5786 5784 5783 5783 5782 5782 5782 5782 5782 5782 5782 5782
5844 5842 5840 5838 5836 5834 5832 5830 5828 5826 5823 5821 5819 5817 5815 5812 5810 5807 5805 5802 5800 5797 5795 5792 5790 5788 5785 5783 5781 5779 5778 5776 5775 5774 5773 5773 5773 5772 5772 5772 5772 5772 5773
5838 5836 5834 5832 5830 5828 5826 5823 5821 5819 5817 5814 5812 5810 5808 5805 5803 5800 5798 5795 5793 5790 5787 5784 5781 5779 5776 5774 5772 5770 5768 5766 5766 5765 5764 5763 5763 5763 5763 5762 5762 5762 5762
5832 5829 5827 5825 5823 5821 5818 5816 5814 5812 5809 5807 5804 5802 5800 5798 5796 5793 5790 5787 5785 5782 5779 5776 5773 5771 5768 5766 5763 5761 5759 5757 5756 5754 5754 5754 5753 5753 5752 5752 5752 5752 5752
5825 5823 5820 5818 5815 5813 5811 5808 5806 5804 5802 5799 5797 5795 5793 5790 5788 5786 5783 5780 5777 5774 5771 5769 5766 5763 5760 5758 5755 5753 5751 5748 5747 5745 5744 5743 5743 5742 5742 5742 5742 5742 5742
5817 5815 5813 5810 5808 5806 5803 5801 5798 5796 5794 5792 5789 5787 5785 5783 5780 5778 5775 5772 5769 5767 5764 5762 5759 5756 5753 5750 5747 5745 5742 5740 5738 5737 5735 5735 5734 5733 5733 5732 5732 5732 5732
5809 5807 5805 5803 5800 5798 5795 5793 5790 5788 5786 5783 5781 5779 5777 5775 5772 5770 5767 5765 5762 5759 5757 5754 5751 5748 5745 5742 5740 5737 5735 5732 5730 5728 5727 5726 5725 5724 5723 5723 5723 5723 5723
5801 5798 5796 5794 5791 5789 5787 5784 5782 5779 5777 5775 5773 5771 5769 5767 5764 5761 5759 5757 5754 5752 5749 5746 5743 5740 5738 5735 5732 5730 5727 5725 5722 5720 5719 5718 5716 5715 5715 5714 5714 5713 5713
5791 5789 5787 5785 5782 5780 5778 5775 5773 5771 5769 5767 5765 5763 5760 5758 5755 5753 5751 5748 5746 5743 5741 5738 5736 5733 5730 5728 5725 5722 5720 5717 5715 5713 5711 5709 5708 5707 5706 5705 5705 5704 5704
5782 5780 5778 5776 5773 5771 5769 5767 5765 5763 5760 5758 5756 5754 5752 5750 5747 5745 5743 5740 5738 5735 5733 5731 5728 5725 5723 5720 5717 5715 5712 5710 5708 5706 5704 5701 5700 5699 5698 5697 5696 5696 5695
5772 5770 5768 5766 5764 5762 5760 5758 5756 5754 5752 5750 5748 5745 5743 5741 5740 5738 5735 5732 5730 5727 5725 5722 5720 5717 5715 5712 5710 5707 5705 5703 5701 5698 5696 5693 5692 5691 5690 5689 5688 5687 5687
5763 5761 5758 5756 5753 5752 5750 5748 5746 5745 5743 5741 5739 5737 5735 5733 5731 5729 5727 5725 5722 5719 5717 5714 5712 5710 5707 5705 5702 5700 5698 5696 5694 5691 5689 5686 5684 5683 5682 5681 5680 5679 5678
5753 5751 5749 5746 5744 5742 5740 5739 5737 5735 5733 5731 5730 5728 5726 5724 5722 5721 5719 5717 5714 5712 5709 5707 5704 5702 5700 5697 5695 5693 5691 5689 5686 5684 5682 5680 5678 5676 5674 5673 5672 5671 5670
5744 5741 5739 5736 5734 5732 5730 5729 5727 5725 5724 5722 5721 5719 5717 5716 5714 5712 5710 5708 5706 5704 5701 5699 5697 5694 5692 5690 5688 5685 5683 5681 5679 5677 5674 5672 5670 5669 5667 5665 5664 5663 5662
5733 5731 5728 5726 5724 5722 5720 5719 5717 5716 5714 5713 5711 5710 5708 5706 5705 5703 5701 5700 5698 5696 5694 5691 5689 5687 5684 5682 5680 5678 5676 5674 5671 5669 5666 5664 5662 5661 5659 5657 5656 5654 5654
5722 5720 5718 5716 5714 5712 5710 5708 5707 5705 5704 5703 5701 5700 5698 5697 5695 5694 5693 5691 5689 5687 5685 5683 5681 5678 5676 5674 5672 5670 5668 5666 5663 5661 5659 5657 5655 5653 5651 5650 5648 5647 5646
5711 5709 5707 5705 5703 5702 5700 5698 5697 5695 5694 5692 5691 5690 5688 5687 5686 5684 5683 5682 5680 5678 5677 5674 5672 5670 5668 5666 5664 5662 5660 5658 5656 5653 5651 5649 5647 5646 5644 5643 5642 5641 5640
5701 5699 5697 5695 5694 5692 5690 5689 5687 5685 5684 5683 5681 5680 5679 5677 5676 5675 5674 5673 5671 5670 5668 5666 5664 5662 5660 5658 5657 5655 5653 5651 5649 5646 5644 5642 5640 5639 5638 5637 5636 5635 5634
5690 5689 5687 5685 5684 5682 5680 5678 5677 5675 5674 5673 5672 5670 5669 5668 5667 5666 5665 5663 5662 5661 5659 5658 5656 5654 5652 5651 5649 5647 5645 5644 5641 5639 5637 5635 5633 5632 5631 5630 5629 5629 5628
5680 5679 5677 5676 5674 5672 5670 5668 5667 5665 5664 5663 5662 5661 5660 5659 5657 5656 5656 5655 5653 5652 5651 5649 5648 5646 5644 5643 5641 5639 5638 5636 5634 5632 5630 5628 5627 5625 5624 5623 5623 5622 5622
5671 5669 5668 5666 5664 5662 5660 5659 5658 5656 5655 5654 5653 5652 5650 5649 5648 5648 5647 5646 5645 5644 5642 5641 5640 5638 5637 5635 5634 5632 5630 5628 5626 5625 5623 5621 5620 5619 5617 5616 5616 5616 5615
5661 5660 5658 5657 5655 5653 5652 5650 5649 5648 5646 5645 5644 5643 5642 5641 5640 5639 5638 5637 5636 5635 5634 5633 5632 5630 5629 5628 5626 5624 5622 5620 5619 5617 5616 5614 5613 5612 5611 5610 5610 5609 5608